Location: �A�n Sefra
(34.9681°N, 0.4346°E)
Time: 08:45:26
(UTC+00:00)

Cosmos 482 Debris - Pass Details

Date: 21 October 2019
Orbit: 202 x 2323 km, 52.1° (Epoch: 14 November)

Event Time Altitude Azimuth Distance (km) Brightness Sun altitude
Rises 18:16:26 0° 311° (NW) 3,381 9.1 -13.0°
Reaches altitude 10° 18:19:34 10° 309° (NW) 2,070 8.0 -13.6°
Maximum altitude 18:23:59 64° 228° (SW) 492 4.2 -14.5°
Enters shadow 18:26:02 17° 148° (SSE) 1,010 5.4 -14.9°
